• In Hungary
  • List of Countries
  • For 7 days
  • Water Temperature
  • Satellite Maps
  • Weather Map
  • News
  • Weather Widgets
  • user-avatar
    Login

    Hourly Weather Cobija

    Today, 23 February, Friday

    Time Temperature Precipitation Wind Pressure Humidity
    00:00 +23°C° 0 mm 1 mps 738 mmHg 97%
    01:00 +21°C° 0 mm 0 mps 738 mmHg 97%
    02:00 +21°C° 0 mm 0 mps 738 mmHg 97%
    03:00 +21°C° 0 mm 0 mps 738 mmHg 97%
    04:00 +21°C° 0 mm 0 mps 737 mmHg 97%
    05:00 +21°C° 0.1 mm 0 mps 738 mmHg 96%
    06:00 +21°C° 0.1 mm 0 mps 738 mmHg 96%
    07:00 +24°C° 0.1 mm 1 mps 739 mmHg 95%
    08:00 +25°C° 0.2 mm 1 mps 739 mmHg 89%
    09:00 +26°C° 0.2 mm 1 mps 739 mmHg 84%
    10:00 +28°C° 0.2 mm 1 mps 739 mmHg 78%
    11:00 +28°C° 0.6 mm 1 mps 739 mmHg 79%
    12:00 +29°C° 0.6 mm 2 mps 738 mmHg 80%
    13:00 +29°C° 0.6 mm 2 mps 737 mmHg 81%
    14:00 +29°C° 0.6 mm 2 mps 737 mmHg 81%
    15:00 +29°C° 0.6 mm 1 mps 736 mmHg 81%
    16:00 +29°C° 0.6 mm 1 mps 735 mmHg 81%
    17:00 +28°C° 0.3 mm 1 mps 735 mmHg 85%
    18:00 +24°C° 0.3 mm 0 mps 736 mmHg 89%
    19:00 +23°C° 0.3 mm 0 mps 736 mmHg 94%
    20:00 +23°C° 0 mm 0 mps 736 mmHg 94%
    21:00 +22°C° 0 mm 0 mps 737 mmHg 95%
    22:00 +22°C° 0 mm 0 mps 737 mmHg 95%
    23:00 +22°C° 0 mm 0 mps 737 mmHg 96%

    Tomorrow, 24 February, Saturday

    Time Temperature Precipitation Wind Pressure Humidity
    00:00 +22°C° 0 mm 0 mps 737 mmHg 96%
    01:00 +22°C° 0 mm 0 mps 737 mmHg 97%
    02:00 +21°C° 1.3 mm 0 mps 736 mmHg 98%
    03:00 +21°C° 1.3 mm 0 mps 736 mmHg 98%
    04:00 +23°C° 1.3 mm 1 mps 736 mmHg 99%
    05:00 +23°C° 1.7 mm 1 mps 736 mmHg 99%
    06:00 +23°C° 1.7 mm 1 mps 737 mmHg 99%
    07:00 +23°C° 1.7 mm 1 mps 737 mmHg 99%
    08:00 +24°C° 0.7 mm 1 mps 738 mmHg 97%
    09:00 +25°C° 0.7 mm 1 mps 738 mmHg 96%
    10:00 +25°C° 0.7 mm 1 mps 738 mmHg 94%
    11:00 +26°C° 0.6 mm 1 mps 738 mmHg 94%
    12:00 +26°C° 0.6 mm 1 mps 737 mmHg 94%
    13:00 +26°C° 0.6 mm 1 mps 736 mmHg 94%
    14:00 +26°C° 0.8 mm 1 mps 736 mmHg 95%
    15:00 +25°C° 0.8 mm 1 mps 735 mmHg 97%
    16:00 +23°C° 0.8 mm 0 mps 735 mmHg 98%
    17:00 +22°C° 0.5 mm 0 mps 735 mmHg 98%
    18:00 +22°C° 0.5 mm 0 mps 736 mmHg 98%
    19:00 +22°C° 0.5 mm 0 mps 736 mmHg 98%
    20:00 +22°C° 1 mm 0 mps 737 mmHg 98%
    21:00 +22°C° 1 mm 0 mps 738 mmHg 98%
    22:00 +22°C° 1 mm 0 mps 738 mmHg 98%
    23:00 +21°C° 1.1 mm 0 mps 738 mmHg 98%

    Day after tomorrow, 25 February, Sunday

    Time Temperature Precipitation Wind Pressure Humidity
    00:00 +21°C° 1.1 mm 0 mps 738 mmHg 98%
    01:00 +21°C° 1.1 mm 0 mps 737 mmHg 98%
    02:00 +21°C° 0.3 mm 0 mps 737 mmHg 98%
    03:00 +21°C° 0.3 mm 0 mps 737 mmHg 98%
    04:00 +20°C° 0.3 mm 0 mps 737 mmHg 98%
    05:00 +21°C° 0.3 mm 0 mps 737 mmHg 98%
    06:00 +21°C° 0.3 mm 0 mps 738 mmHg 98%
    07:00 +23°C° 0.3 mm 1 mps 738 mmHg 98%
    08:00 +24°C° 0.4 mm 1 mps 738 mmHg 97%
    09:00 +24°C° 0.4 mm 1 mps 739 mmHg 96%
    10:00 +25°C° 0.4 mm 1 mps 739 mmHg 96%
    11:00 +26°C° 0.6 mm 1 mps 738 mmHg 93%
    12:00 +27°C° 0.6 mm 1 mps 738 mmHg 90%
    13:00 +28°C° 0.6 mm 1 mps 737 mmHg 88%
    14:00 +28°C° 1 mm 1 mps 736 mmHg 89%
    15:00 +28°C° 1 mm 1 mps 736 mmHg 91%
    16:00 +26°C° 1 mm 0 mps 735 mmHg 92%
    17:00 +25°C° 0.5 mm 0 mps 735 mmHg 94%
    18:00 +23°C° 0.5 mm 0 mps 736 mmHg 96%
    19:00 +22°C° 0.5 mm 0 mps 736 mmHg 98%
    20:00 +22°C° 0 mm 0 mps 737 mmHg 98%
    21:00 +22°C° 0 mm 0 mps 737 mmHg 99%
    22:00 +22°C° 0 mm 0 mps 738 mmHg 99%
    23:00 +21°C° 0.4 mm 0 mps 738 mmHg 99%

    26 February, Monday

    Time Temperature Precipitation Wind Pressure Humidity
    00:00 +21°C° 0.4 mm 0 mps 737 mmHg 99%
    01:00 +21°C° 0.4 mm 0 mps 737 mmHg 99%
    02:00 +23°C° 0.7 mm 1 mps 737 mmHg 99%
    03:00 +23°C° 0.7 mm 1 mps 737 mmHg 99%
    04:00 +23°C° 0.7 mm 1 mps 737 mmHg 99%
    05:00 +23°C° 0.3 mm 1 mps 737 mmHg 99%
    06:00 +23°C° 0.3 mm 1 mps 738 mmHg 99%
    07:00 +23°C° 0.3 mm 1 mps 739 mmHg 98%
    08:00 +24°C° 0.3 mm 1 mps 739 mmHg 96%
    09:00 +23°C° 0.3 mm 0 mps 739 mmHg 94%
    10:00 +24°C° 0.3 mm 0 mps 739 mmHg 92%
    11:00 +24°C° 1.1 mm 0 mps 738 mmHg 92%
    12:00 +27°C° 1.1 mm 1 mps 737 mmHg 91%
    13:00 +27°C° 1.1 mm 1 mps 736 mmHg 91%
    14:00 +27°C° 1.1 mm 1 mps 736 mmHg 91%
    15:00 +27°C° 1.1 mm 1 mps 735 mmHg 90%
    16:00 +27°C° 1.1 mm 1 mps 735 mmHg 90%
    17:00 +26°C° 0.2 mm 1 mps 735 mmHg 93%
    18:00 +25°C° 0.2 mm 1 mps 735 mmHg 95%
    19:00 +24°C° 0.2 mm 1 mps 736 mmHg 98%
    20:00 +24°C° 0 mm 1 mps 736 mmHg 98%
    21:00 +24°C° 0 mm 1 mps 737 mmHg 98%
    22:00 +23°C° 0 mm 1 mps 738 mmHg 99%
    23:00 +23°C° 0.2 mm 1 mps 737 mmHg 99%

    27 February, Tuesday

    Time Temperature Precipitation Wind Pressure Humidity
    00:00 +23°C° 0.2 mm 1 mps 737 mmHg 99%
    01:00 +23°C° 0.2 mm 1 mps 737 mmHg 99%
    02:00 +20°C° 0.3 mm 0 mps 736 mmHg 99%
    03:00 +20°C° 0.3 mm 0 mps 736 mmHg 99%
    04:00 +20°C° 0.3 mm 0 mps 736 mmHg 99%
    05:00 +21°C° 0.1 mm 0 mps 737 mmHg 98%
    06:00 +21°C° 0.1 mm 0 mps 737 mmHg 96%
    07:00 +22°C° 0.1 mm 0 mps 738 mmHg 95%
    08:00 +26°C° 0 mm 1 mps 738 mmHg 85%
    09:00 +28°C° 0 mm 1 mps 738 mmHg 74%
    10:00 +30°C° 0 mm 1 mps 738 mmHg 64%
    11:00 +30°C° 1 mm 2 mps 737 mmHg 73%
    12:00 +30°C° 1 mm 2 mps 736 mmHg 81%
    13:00 +29°C° 1 mm 2 mps 735 mmHg 90%
    14:00 +29°C° 1 mm 1 mps 735 mmHg 91%
    15:00 +28°C° 1 mm 1 mps 734 mmHg 91%
    16:00 +28°C° 1 mm 1 mps 734 mmHg 92%
    17:00 +27°C° 0.4 mm 1 mps 734 mmHg 94%
    18:00 +26°C° 0.4 mm 1 mps 735 mmHg 96%
    19:00 +25°C° 0.4 mm 1 mps 735 mmHg 98%
    20:00 +25°C° 0 mm 1 mps 735 mmHg 98%
    21:00 +24°C° 0 mm 1 mps 736 mmHg 98%
    22:00 +24°C° 0 mm 1 mps 736 mmHg 98%
    23:00 +24°C° 0 mm 1 mps 736 mmHg 98%

    28 February, Wednesday

    Time Temperature Precipitation Wind Pressure Humidity
    00:00 +24°C° 0 mm 1 mps 736 mmHg 98%
    01:00 +23°C° 0 mm 1 mps 736 mmHg 98%
    02:00 +23°C° 0 mm 1 mps 736 mmHg 98%
    03:00 +23°C° 0 mm 1 mps 735 mmHg 98%
    04:00 +21°C° 0 mm 0 mps 735 mmHg 98%
    05:00 +22°C° 0 mm 0 mps 736 mmHg 97%
    06:00 +22°C° 0 mm 0 mps 737 mmHg 96%
    07:00 +23°C° 0 mm 0 mps 737 mmHg 95%
    08:00 +27°C° 0 mm 1 mps 737 mmHg 82%
    09:00 +30°C° 0 mm 1 mps 738 mmHg 70%
    10:00 +32°C° 0 mm 1 mps 738 mmHg 57%
    11:00 +32°C° 0.8 mm 1 mps 737 mmHg 65%
    12:00 +32°C° 0.8 mm 2 mps 736 mmHg 73%
    13:00 +31°C° 0.8 mm 2 mps 735 mmHg 80%
    14:00 +31°C° 0.5 mm 1 mps 734 mmHg 75%
    15:00 +32°C° 0.5 mm 1 mps 734 mmHg 70%
    16:00 +32°C° 0.5 mm 1 mps 733 mmHg 66%
    17:00 +30°C° 0.1 mm 1 mps 734 mmHg 73%
    18:00 +28°C° 0.1 mm 1 mps 734 mmHg 80%
    19:00 +25°C° 0.1 mm 0 mps 735 mmHg 87%
    20:00 +24°C° 0 mm 0 mps 735 mmHg 88%
    21:00 +24°C° 0 mm 0 mps 736 mmHg 89%
    22:00 +23°C° 0 mm 0 mps 736 mmHg 90%
    23:00 +23°C° 0 mm 0 mps 736 mmHg 91%
    Show more